NOAA NWS Hourly Roundups by Site

Regional Weather Roundup for Bismarck, ND

To Select Another Site Choose from List

Select Site:  

000
ASUS43 KBIS 182310
RWRBIS

NWR BROADCAST TEXT
NATIONAL WEATHER SERVICE BISMARCK ND
600 PM CDT THU JUL 18 2019

NOTE: "FAIR" INDICATES FEW OR NO CLOUDS BELOW 12,000 FEET WITH NO
SIGNIFICANT WEATHER AND/OR OBSTRUCTIONS TO VISIBILITY.


CITY           SKY/WX    TMP DP  RH WIND       PRES   REMARKS
WILLISTON      MOSUNNY   85  50  29 W12G22    29.62F
MINOT          SUNNY     84  52  33 SW14G22   29.61S
MINOT AFB      SUNNY     82  54  37 W16G22    29.59S
BISMARCK       SUNNY     83  62  49 W6        29.66F
DICKINSON      MOSUNNY   82  55  39 SW8       29.68F
GARRISON         N/A     80  57  45 NW12      29.64F
HETTINGER ARPT SUNNY     84  56  38 VRB6      29.72F
JAMESTOWN      MOSUNNY   78  65  63 W9        29.63F
CARRINGTON     FAIR      82  57  42 W15       29.66R
HAZEN          FAIR      84  59  42 W10G17    29.66F
MANDAN         FAIR      81  63  54 W7        29.68S
OAKES          FAIR      86  72  62 W8        29.65F HX  92
RUGBY          FAIR      79  54  41 W17G25    29.59S
STANLEY        FAIR      79  52  38 W14G22    29.65S
TIOGA          FAIR      77  54  44 W15       29.65S
WATFORD CITY     N/A    N/A N/A N/A MISG        N/A
$$

CITY           SKY/WX    TMP DP  RH WIND       PRES   REMARKS
GRAND FORKS    MOSUNNY   86  61  42 W14G22    29.55R
GRAND FORKS AF SUNNY     85  60  42 W13G21    29.56S
DEVILS LAKE    SUNNY     83  56  39 W21       29.60R
FARGO          PTSUNNY   79  66  64 SW9       29.60F
CANDO          FAIR      81  57  44 W14G21    29.60S
CAVALIER       FAIR      82  59  44 W15G22    29.52S
GRAFTON        FAIR      86  59  39 W21       29.55R
GWINNER          N/A     86  73  66 W5        29.64S HX  93
LANGDON        FAIR     N/A N/A N/A W18       29.58R
ROLLA          FAIR      75  55  50 W20G29    29.60S
WALHALLA       FAIR      82  61  47 W8G23     29.52S
$$

CITY           SKY/WX    TMP DP  RH WIND       PRES   REMARKS
ABERDEEN       MOSUNNY   90  69  50 SE5       29.64F HX  94
MOBRIDGE       SUNNY     88  65  46 NE6       29.64F HX  90
BUFFALO          N/A     86  59  39 SE5       29.69F
RAPID CITY     SUNNY     86  69  56 E8        29.70F HX  90
GLASGOW        MOSUNNY   86  44  23 NW29G39   29.60S
SIDNEY         SUNNY     84  52  33 W12G20    29.64S
WOLF POINT     SUNNY     84  49  29 SW12      29.60F
GLENDIVE       MOSUNNY   85  54  34 W8        29.67F
MILES CITY     MOSUNNY   83  53  35 SW9       29.67F
BAKER          SUNNY     82  55  39 W9        29.73F
$$

CITY           SKY/WX    TMP DP  RH WIND       PRES   REMARKS
BILLINGS       MOSUNNY   88  50  27 VRB6      29.73F
GREAT FALLS    SUNNY     77  39  25 W24G41    29.76R
REGINA         PTSUNNY   75  55  50 W12       29.51R
ESTEVAN        SUNNY     82  52  34 W13G26    29.57F
$$




 

View Past Reports for Bismarck, ND.

Products Courtesy of NOAA-NWS
NWS Information Parsing Script by Ken True at Saratoga Weather - Script by SE Lincoln Weather.